Location: Heiligenberg
(48.5381°N, 7.3897°E)
Time: 21:25:48
(UTC+00:00)

Cosmos 2237 Rocket - Pass Details

Date: 26 May 2022
Orbit: 834 x 851 km, 71.0° (Epoch: 03 July)

Event Time Altitude Azimuth Distance (km) Brightness Sun altitude
Exits shadow 02:53:37 - 266° (W) 3,412 4.9 -6.6°
Rises 02:53:38 0° 266° (W) 3,407 4.9 -6.6°
Reaches altitude 10° 02:57:07 10° 288° (WNW) 2,478 4.4 -6.1°
Maximum altitude 03:00:33 16° 325° (NW) 2,084 4.4 -5.7°
Drops below altitude 10° 03:04:00 10° 3° (N) 2,488 5.3 -5.3°
Sets 03:07:31 0° 24° (NNE) 3,428 6.7 -4.8°
